FW8433 Weather Reports


time (UTC)temp
F
wind
direction
speed
knots
gust
knots
rain 1hr
in
rain 24hr
in
rain mn
in
humidity
%
barometer
mb
20260502204051 72 346 1.7 11.3 0.00 0.00 0.00 42 1018.2
20260502203552 70 332 5.2 11.3 0.00 0.00 0.00 43 1018.4
20260502203109 71 5 5.2 9.6 0.00 0.00 0.00 40 1018.4
20260502202550 72 322 2.6 7.8 0.00 0.00 0.00 43 1018.5
20260502202053 72 94 1.7 10.4 0.00 0.00 0.00 45 1018.5
20260502201606 72 0 3.5 10.4 0.00 0.00 0.00 45 1018.5
20260502201050 72 34 5.2 10.4 0.00 0.00 0.00 42 1018.6
20260502200552 72 19 2.6 11.3 0.00 0.00 0.00 46 1018.7
20260502200057 71 49 5.2 11.3 0.00 0.00 0.00 43 1018.7
20260502195551 71 327 5.2 10.4 0.00 0.00 0.00 40 1018.7
20260502195051 71 26 1.7 11.3 0.00 0.00 0.00 43 1018.8
20260502194558 71 21 6.1 11.3 0.00 0.00 0.00 42 1018.9
20260502194051 72 352 1.7 11.3 0.00 0.00 0.00 42 1018.9
20260502193549 72 34 3.5 11.3 0.00 0.00 0.00 43 1019.0
20260502193113 71 296 4.3 12.2 0.00 0.00 0.00 42 1018.9
20260502192550 71 69 5.2 12.2 0.00 0.00 0.00 42 1018.9
20260502192048 71 51 3.5 12.2 0.00 0.00 0.00 44 1019.1
20260502191558 71 340 5.2 12.2 0.00 0.00 0.00 42 1019.1
20260502191051 71 346 5.2 13.9 0.00 0.00 0.00 40 1019.0
20260502190550 71 347 6.1 13.9 0.00 0.00 0.00 42 1019.0
20260502190053 71 44 4.3 13.0 0.00 0.00 0.00 38 1019.1
20260502185550 71 9 6.1 13.0 0.00 0.00 0.00 40 1019.2
20260502185051 71 290 5.2 10.4 0.00 0.00 0.00 45 1019.2
20260502184559 71 19 4.3 32.2 0.00 0.00 0.00 44 1019.2
20260502184048 71 60 7.8 32.2 0.00 0.00 0.00 43 1019.1
20260502183551 70 323 2.6 9.6 0.00 0.00 0.00 45 1019.2
20260502183059 70 355 4.3 12.2 0.00 0.00 0.00 42 1019.2
20260502182549 70 351 6.1 12.2 0.00 0.00 0.00 44 1019.3
20260502182052 70 316 6.1 13.9 0.00 0.00 0.00 43 1019.3
20260502181558 70 19 4.3 13.9 0.00 0.00 0.00 45 1019.4
20260502181051 70 53 4.3 10.4 0.00 0.00 0.00 43 1019.4
20260502180552 70 67 4.3 10.4 0.00 0.00 0.00 44 1019.5
20260502164051 68 61 6.1 13.0 0.00 0.00 0.00 47 1020.0
20260502163550 68 66 4.3 9.6 0.00 0.00 0.00 49 1019.9
20260502163110 67 26 6.1 11.3 0.00 0.00 0.00 47 1019.8
20260502162550 67 59 5.2 11.3 0.00 0.00 0.00 50 1020.0
20260502162049 67 27 5.2 10.4 0.00 0.00 0.00 48 1020.0
20260502161555 67 66 4.3 9.6 0.00 0.00 0.00 50 1020.0
20260502161049 67 67 3.5 9.6 0.00 0.00 0.00 51 1020.2
20260502160550 67 80 1.7 9.6 0.00 0.00 0.00 55 1020.3
20260502160106 66 24 5.2 9.6 0.00 0.00 0.00 51 1020.2
20260502152050 65 323 3.5 7.0 0.00 0.00 0.00 59 1020.2
20260502151557 64 80 3.5 7.8 0.00 0.00 0.00 58 1020.3
20260502151049 64 53 3.5 7.8 0.00 0.00 0.00 60 1020.1
20260502150549 64 5 3.5 8.7 0.00 0.00 0.00 64 1020.1
20260502130549 57 13 1.7 5.2 0.00 0.00 0.00 77 1018.7
20260502123549 55 42 2.6 7.0 0.00 0.00 0.00 82 1018.4
20260502123051 55 37 1.7 7.0 0.00 0.00 0.00 83 1018.3
20260502122551 54 336 0.9 3.5 0.00 0.00 0.00 84 1018.2
20260502122051 54 346 0.9 3.5 0.00 0.00 0.00 83 1018.2
20260502121551 54 346 0.0 3.5 0.00 0.00 0.00 83 1018.1
20260502121054 54 346 0.0 4.3 0.00 0.00 0.00 83 1017.9
20260502120552 54 313 0.9 4.3 0.00 0.00 0.00 83 1017.9
20260502120105 54 0 0.9 3.5 0.00 0.00 0.00 83 1017.8
20260502115553 54 352 0.9 3.5 0.00 0.00 0.00 83 1017.7
20260502115048 54 0 0.0 1.7 0.00 0.00 0.00 83 1017.7
20260502114634 54 0 0.0 2.6 0.00 0.00 0.00 83 1017.6
20260502114054 54 341 0.0 3.5 0.00 0.00 0.00 83 1017.4
20260502113554 54 0 0.0 3.5 0.00 0.00 0.00 83 1017.3
20260502113054 54 341 0.0 2.6 0.00 0.00 0.00 83 1017.4
20260502112553 54 350 0.0 2.6 0.00 0.00 0.00 83 1017.2
20260502112053 54 0 0.9 3.5 0.00 0.00 0.00 83 1017.1
20260502111554 54 0 0.0 3.5 0.00 0.00 0.00 83 1017.1
20260502111053 54 0 0.9 3.5 0.00 0.00 0.00 83 1017.1
20260502110554 54 0 0.9 3.5 0.00 0.00 0.00 83 1016.9
20260502110055 54 325 0.9 3.5 0.00 0.00 0.00 83 1017.0
20260502105557 54 9 1.7 4.3 0.00 0.00 0.00 83 1016.9
20260502105053 54 346 1.7 4.3 0.00 0.00 0.00 83 1016.8
20260502104553 54 0 0.0 2.6 0.00 0.00 0.00 83 1016.8
20260502104052 54 338 0.9 4.3 0.00 0.00 0.00 83 1016.7
20260502103550 54 0 0.0 4.3 0.00 0.00 0.00 83 1016.6
20260502103054 54 344 0.9 4.3 0.00 0.00 0.00 83 1016.7
20260502102554 54 15 0.9 3.5 0.00 0.00 0.00 83 1016.5
20260502102054 54 352 0.9 2.6 0.00 0.00 0.00 83 1016.6
20260502101614 54 0 0.0 2.6 0.00 0.00 0.00 82 1016.5
20260502101054 54 0 0.0 4.3 0.00 0.00 0.00 83 1016.5
20260502100555 55 350 0.9 4.3 0.00 0.00 0.00 83 1016.5
20260502100108 55 360 0.9 4.3 0.00 0.00 0.00 83 1016.5
20260502091053 55 348 0.0 1.7 0.00 0.00 0.00 83 1016.1
20260502090553 55 0 0.0 2.6 0.00 0.00 0.00 83 1016.0
20260502071051 55 0 0.0 0.0 0.00 0.00 0.00 88 1016.1
20260502070552 55 0 0.0 0.0 0.00 0.00 0.00 88 1016.0
20260502070108 55 0 0.0 0.0 0.00 0.00 0.00 88 1016.1
20260502065550 56 0 0.0 0.0 0.00 0.00 0.00 88 1016.2
20260502065049 56 0 0.0 0.0 0.00 0.00 0.00 88 1016.3
20260502064621 56 0 0.0 0.0 0.00 0.00 0.00 88 1016.3
20260502064050 56 0 0.0 0.0 0.00 0.00 0.00 87 1016.4
20260502063550 56 0 0.0 0.0 0.00 0.00 0.00 87 1016.5
20260502063119 56 0 0.0 0.0 0.00 0.00 0.00 87 1016.4
20260502062555 56 0 0.0 0.0 0.00 0.00 0.00 87 1016.7
20260502062049 56 0 0.0 0.0 0.00 0.00 0.00 87 1016.7
20260502061554 56 0 0.0 0.9 0.00 0.00 0.00 87 1016.6
20260502061049 56 0 0.0 1.7 0.00 0.00 0.00 87 1016.4
20260502060554 56 0 0.0 1.7 0.00 0.00 0.00 87 1016.4
20260502060053 56 0 0.0 2.6 0.00 0.00 0.00 87 1016.4
20260502055552 56 352 0.9 2.6 0.00 0.00 0.00 87 1016.4
20260502055051 56 345 0.0 1.7 0.00 0.00 0.00 87 1016.6
20260502054552 56 0 0.0 0.9 0.00 0.00 0.00 87 1016.8
20260502054050 56 0 0.0 0.0 0.00 0.00 0.00 87 1017.2
20260502053551 56 0 0.0 0.0 0.00 0.00 0.00 87 1017.2
20260502053059 56 0 0.0 0.0 0.00 0.00 0.00 87 1017.2
20260502052549 56 0 0.0 0.0 0.00 0.00 0.00 87 1017.0
20260502052053 56 0 0.0 1.7 0.00 0.00 0.00 87 1016.8
20260502051554 56 0 0.0 1.7 0.00 0.00 0.00 87 1016.7
20260502051055 56 0 0.0 1.7 0.00 0.00 0.00 87 1016.8
20260502050550 56 0 0.0 0.0 0.00 0.00 0.00 86 1016.8
20260502050056 56 0 0.0 0.9 0.00 0.00 0.00 86 1016.8
20260502045550 56 0 0.0 0.9 0.00 0.00 0.00 86 1016.6
20260502045050 56 0 0.0 1.7 0.00 0.00 0.00 86 1016.5
20260502044552 56 0 0.0 1.7 0.00 0.00 0.00 86 1016.6
20260502044051 57 56 0.0 1.7 0.00 0.00 0.00 86 1016.6
20260502043549 57 0 0.0 0.9 0.00 0.00 0.00 86 1016.5
20260502043125 57 0 0.0 0.9 0.00 0.00 0.00 86 1016.8
20260502042550 57 0 0.0 0.9 0.00 0.00 0.00 86 1016.5
20260502042050 57 0 0.0 0.9 0.00 0.00 0.00 86 1016.8
20260502041602 57 0 0.0 1.7 0.00 0.00 0.00 86 1017.2
20260502041054 57 5 0.0 1.7 0.00 0.00 0.00 87 1017.0
20260502040549 57 23 0.0 1.7 0.00 0.00 0.00 87 1016.9
20260502040059 57 0 0.0 1.7 0.00 0.00 0.00 87 1017.2
20260502035550 57 348 0.0 3.5 0.00 0.00 0.00 87 1016.9
20260502035050 57 0 0.0 3.5 0.00 0.00 0.00 88 1016.9
20260502034556 57 346 0.9 3.5 0.00 0.00 0.00 88 1016.9
20260502034050 57 0 0.0 2.6 0.00 0.00 0.00 88 1016.8
20260502033549 57 0 0.0 3.5 0.00 0.00 0.00 88 1016.5
20260502033053 57 337 0.0 3.5 0.00 0.00 0.00 88 1016.3
20260502032550 57 318 0.0 3.5 0.00 0.00 0.00 88 1016.2
20260502032052 57 0 0.0 3.5 0.00 0.00 0.00 88 1016.2
20260502031556 57 0 0.0 3.5 0.00 0.00 0.00 88 1016.2
20260502031050 57 333 0.0 3.5 0.00 0.00 0.00 88 1015.9
20260502030549 57 0 0.0 3.5 0.00 0.00 0.00 88 1016.0
20260502025549 57 0 0.0 0.0 0.00 0.00 0.00 88 1015.4
20260502025049 57 0 0.0 0.0 0.00 0.00 0.00 88 1015.5
20260502024602 57 0 0.0 0.0 0.00 0.00 0.00 88 1015.7
20260502024050 57 0 0.0 0.9 0.00 0.00 0.00 88 1015.7
20260502023550 57 0 0.0 0.9 0.00 0.00 0.00 88 1015.4
20260502023107 57 0 0.0 0.9 0.00 0.00 0.00 87 1015.2
20260502022549 57 0 0.0 0.9 0.00 0.00 0.00 87 1015.2
20260502022113 57 0 0.0 0.9 0.00 0.00 0.00 88 1015.1
20260502021554 57 0 0.0 0.9 0.00 0.00 0.00 87 1015.2
20260502021050 57 0 0.0 1.7 0.00 0.00 0.00 87 1015.1
20260502020554 57 0 0.0 1.7 0.00 0.00 0.00 87 1015.0
20260502020056 58 0 0.0 0.0 0.00 0.00 0.00 87 1014.6
20260502015550 58 0 0.0 0.0 0.00 0.00 0.00 87 1014.9
20260502015050 58 0 0.0 0.0 0.00 0.00 0.00 87 1015.1
20260502014554 58 0 0.0 0.0 0.00 0.00 0.00 87 1015.2
20260502014051 58 0 0.0 0.0 0.00 0.00 0.00 86 1015.2
20260502013550 58 0 0.0 0.0 0.00 0.00 0.00 86 1015.2
20260502013101 58 0 0.0 0.0 0.00 0.00 0.00 86 1015.3
20260502012549 58 0 0.0 0.0 0.00 0.00 0.00 85 1015.6
20260502012049 58 0 0.0 0.0 0.00 0.00 0.00 85 1015.8
20260502011604 59 0 0.0 0.0 0.00 0.00 0.00 85 1015.8
20260502011049 59 0 0.0 0.0 0.00 0.00 0.00 85 1015.8
20260502010549 59 0 0.0 0.0 0.00 0.00 0.00 85 1015.7
20260502010108 59 0 0.0 0.0 0.00 0.00 0.00 84 1015.4
20260502005550 59 0 0.0 0.0 0.00 0.00 0.00 84 1015.4
20260502005050 59 0 0.0 0.0 0.00 0.00 0.00 84 1015.5
20260502004555 59 0 0.0 0.0 0.00 0.00 0.00 83 1015.7
20260502004052 60 0 0.0 0.0 0.00 0.00 0.00 83 1015.7
20260502003549 60 0 0.0 0.0 0.00 0.00 0.00 82 1015.7
20260502003052 60 0 0.0 0.0 0.00 0.00 0.00 82 1015.6
20260502002549 60 0 0.0 0.0 0.00 0.00 0.00 81 1015.6
20260502002050 60 0 0.0 0.0 0.00 0.00 0.00 81 1015.5
20260502001558 60 0 0.0 0.0 0.00 0.00 0.00 80 1015.5
20260502001050 60 0 0.0 0.0 0.00 0.00 0.00 80 1015.6
20260502000550 60 0 0.0 0.0 0.00 0.00 0.00 80 1015.6
20260502000055 60 0 0.0 0.0 0.00 0.00 0.00 80 1015.4
20260501235550 60 0 0.0 0.0 0.00 0.00 0.00 79 1015.4
20260501235050 60 0 0.0 0.0 0.00 0.00 0.00 78 1015.3
20260501234557 60 0 0.0 0.0 0.00 0.00 0.00 78 1015.2
20260501234050 60 0 0.0 0.0 0.00 0.00 0.00 78 1015.0
20260501233555 60 0 0.0 0.0 0.00 0.00 0.00 78 1014.9
20260501233104 60 0 0.0 2.6 0.00 0.00 0.00 77 1014.9
20260501232549 60 0 0.0 2.6 0.00 0.00 0.00 76 1014.7
20260501232050 60 15 0.9 3.5 0.00 0.00 0.00 76 1014.7
20260501231559 60 36 0.9 3.5 0.00 0.00 0.00 76 1014.6
20260501231053 60 36 1.7 3.5 0.00 0.00 0.00 75 1014.6
20260501230553 60 25 0.9 5.2 0.00 0.00 0.00 75 1014.6
20260501230055 60 5 1.7 7.0 0.00 0.00 0.00 75 1014.4
20260501225554 60 5 1.7 7.0 0.00 0.00 0.00 75 1014.2
20260501225053 60 58 2.6 7.0 0.00 0.00 0.00 75 1014.2
20260501224554 60 22 0.9 4.3 0.00 0.00 0.00 75 1014.0
20260501224055 60 36 2.6 5.2 0.00 0.00 0.00 74 1013.8
20260501223556 60 40 1.7 5.2 0.00 0.00 0.00 74 1014.1
20260501223054 60 352 3.5 8.7 0.00 0.00 0.00 73 1014.0
20260501222554 60 32 3.5 8.7 0.00 0.00 0.00 73 1013.7
20260501222050 60 38 2.6 8.7 0.00 0.00 0.00 73 1013.5
20260501221555 60 30 4.3 8.7 0.00 0.00 0.00 74 1013.0
20260501221053 60 15 3.5 10.4 0.00 0.00 0.00 75 1013.0
20260501220554 60 55 4.3 10.4 0.00 0.00 0.00 75 1013.1
20260501220108 60 17 4.3 10.4 0.00 0.00 0.00 76 1013.0
20260501215554 60 51 4.3 8.7 0.00 0.00 0.00 75 1013.0
20260501215058 60 85 4.3 8.7 0.00 0.00 0.00 75 1013.0
20260501214552 60 63 3.5 7.8 0.00 0.00 0.00 75 1013.0
20260501214054 60 68 2.6 7.8 0.00 0.00 0.00 75 1013.1
20260501213553 60 108 1.7 9.6 0.00 0.00 0.00 75 1013.2
20260501213100 60 79 3.5 11.3 0.00 0.00 0.00 75 1013.2
20260501212555 60 34 5.2 11.3 0.00 0.00 0.00 74 1013.5
20260501212053 60 11 4.3 9.6 0.00 0.00 0.00 74 1013.5
20260501211600 60 56 5.2 9.6 0.00 0.00 0.00 75 1013.1
20260501211053 60 74 2.6 7.0 0.00 0.00 0.00 75 1013.3
20260501210554 60 52 2.6 7.8 0.00 0.00 0.00 75 1013.7
20260501210055 60 97 3.5 7.8 0.00 0.00 0.00 76 1014.0
20260501205550 60 55 3.5 7.8 0.00 0.00 0.00 77 1014.0
20260501205055 60 61 3.5 7.8 0.00 0.00 0.00 78 1014.0
20260501204603 60 54 1.7 5.2 0.00 0.00 0.00 79 1014.0